Regional Weather Roundup
Issued by NWS

Home | Current Version | Previous Version | Graphics & Text | Print | Product List | Glossary On
Versions: 1 2 3 4 5 6 7 8 9 10 11 12 13 14 15 16 17 18 19 20 21 22 23 24 25 26 27 28 29 30 31 32 33 34 35 36 37 38 39 40 41 42 43 44 45 46 47 48 49 50
000
ASUS43 KBIS 291202
RWRND

NORTH DAKOTA REGIONAL WEATHER ROUNDUP
NATIONAL WEATHER SERVICE BISMARCK ND
700 AM CDT FRI MAY 29 2015

NOTE: "FAIR" INDICATES FEW OR NO CLOUDS BELOW 12,000 FEET WITH NO
SIGNIFICANT WEATHER AND/OR OBSTRUCTIONS TO VISIBILITY.


NDZ001>003-009>011-017-291300-
NORTHWEST NORTH DAKOTA

CITY           SKY/WX    TMP DP  RH WIND       PRES   REMARKS
WILLISTON      CLOUDY    45  32  60 N12       30.27R
6HR MIN TEMP:  44; 6HR MAX TEMP:  50;

MINOT          CLOUDY    46  35  65 N15G26    30.19R
MINOT AFB      CLOUDY    46  45  97 N12       30.19R
$$

NDZ018>021-031>035-040>046-291300-
SOUTHWEST NORTH DAKOTA

CITY           SKY/WX    TMP DP  RH WIND       PRES   REMARKS
BISMARCK       CLOUDY    50  44  80 N17G23    30.13R
6HR MIN TEMP:  50; 6HR MAX TEMP:  61;

DICKINSON      CLOUDY    44  40  85 N14G24    30.18R
GARRISON         N/A     47  39  74 N12G22    30.18R
6HR MIN TEMP:  47; 6HR MAX TEMP:  52;

HETTINGER ARPT CLOUDY    46  43  89 N17       30.17R
$$

NDZ004>008-012>016-024-026-027-054-291300-
NORTHEAST NORTH DAKOTA

CITY           SKY/WX    TMP DP  RH WIND       PRES   REMARKS
GRAND FORKS    CLOUDY    46  41  82 N29G37    30.05R
GRND FRKS AFB  CLOUDY    46  39  78 N24G35    30.06R
DEVILS LAKE    CLOUDY    46  36  66 N21G28    30.12R
$$

NDZ022-023-025-028>030-036>039-047>053-291300-
SOUTHEAST NORTH DAKOTA

CITY           SKY/WX    TMP DP  RH WIND       PRES   REMARKS
FARGO          CLOUDY    51  47  86 N26G37    29.97R
6HR MIN TEMP:  51; 6HR MAX TEMP:  63; 6HR PCP:  0.81;

JAMESTOWN      CLOUDY    49  44  83 N22G31    30.05R
$$



USA.gov is the U.S. government's official web portal to all federal, state and local government web resources and services.